Location: Larrial
(48.2758°N, 4.5331°W)
Time: 06:55:32
(UTC+00:00)

STARLINK-1154 - Pass Details

Date: 09 April 2020
Orbit: 548 x 550 km, 53.0° (Epoch: 03 June)

Event Time Altitude Azimuth Distance (km) Brightness Sun altitude
Rises 19:41:32 0° 296° (WNW) 2,715 9.7 -7.3°
Reaches altitude 10° 19:43:47 10° 294° (WNW) 1,819 8.1 -7.7°
Maximum altitude 19:47:53 70° 211° (SSW) 583 3.8 -8.3°
Enters shadow 19:51:50 11° 128° (SE) 1,752 5.6 -8.9°
